Regional Weather Roundup
Issued by NWS Upton, NY

Current Version | Previous Version | Text Only | Print | Product List | Glossary On
Versions: 1 2 3 4 5 6 7 8 9 10 11 12 13 14 15 16 17 18 19 20 21 22 23 24 25 26 27 28 29 30 31 32 33 34 35 36 37 38 39 40 41 42 43 44 45 46 47 48 49 50
000
ASUS41 KOKX 251308
RWROKX

REGIONAL WEATHER ROUNDUP
NATIONAL WEATHER SERVICE NEW YORK NY
900 AM EDT SUN SEP 25 2016

NOTE: "FAIR" INDICATES FEW OR NO CLOUDS BELOW 12,000 FEET WITH NO
SIGNIFICANT WEATHER AND/OR OBSTRUCTIONS TO VISIBILITY.

NYZ071-072-176-178-NJZ106-104-251400-
NEW YORK CITY METRO AREA

CITY           SKY/WX    TMP DP  RH WIND       PRES   REMARKS
Central Park   SUNNY     57  42  57 CALM      30.23S
LaGuardia APRT SUNNY     60  42  51 N9        30.20R
Kennedy INTL   SUNNY     60  41  49 N12       30.20F
Newark/Liberty SUNNY     59  41  51 N6        30.21R
Bronx Bot Gard   N/A     57  39  51 SE2       30.20F
Wall St Helipt SUNNY     63  45  51 W5        30.21S
Teterboro      SUNNY     57  39  51 N6        30.20S
$$

NYZ177-179-078>081-251400-
LONG ISLAND NEW YORK

CITY           SKY/WX    TMP DP  RH WIND       PRES   REMARKS
Farmingdale    SUNNY     59  42  53 N9        30.19S
MacArthur/ISP  SUNNY     59  42  53 N12       30.18S
Shirley        SUNNY     58  44  60 N9        30.19S
Riverhead      NOT AVBL
Westhampton    SUNNY     59  41  51 N9        30.19F
Southampton      N/A     59  43  55 N8        30.14S
Bridgehampton    N/A     55  43  62 E2        30.03S
East Hampton   FAIR      57  40  51 N9        30.17S
Montauk          N/A     57  39  51 N12       30.18R
$$

NYZ052-065-067-251400-
HUDSON VALLEY

CITY           SKY/WX    TMP DP  RH WIND       PRES   REMARKS
White Plains   SUNNY     56  39  53 N8        30.19F
Newburgh       SUNNY     52  45  76 VRB5      30.22S
Montgomery     SUNNY     52  44  74 CALM      30.21S
Poughkeepsie   SUNNY     51  42  71 N5        30.21S
Albany         SUNNY     50  41  71 NW5       30.23S
$$

NJZ001-105-106-008-010-013-015-019>022-104-251400-
NEW JERSEY

CITY           SKY/WX    TMP DP  RH WIND       PRES   REMARKS
Newark/Liberty SUNNY     59  41  51 N6        30.21R
Teterboro      SUNNY     57  39  51 N6        30.20S
Caldwell       SUNNY     53  44  71 CALM      30.22S
Morristown     SUNNY     54  46  76 CALM      30.22S
Somerville     SUNNY     53  46  77 CALM      30.20F
Linden         NOT AVBL
Sussex         SUNNY     51  46  83 CALM      30.21S
Abdover          N/A     50  47  89 CALM      30.22S
Trenton        SUNNY     57  43  59 N5        30.21S
Millville      SUNNY     57  49  74 N7        30.21R
Atlantic City  SUNNY     56  47  71 N8        30.20S
Wrightstown    SUNNY     57  44  63 N7        30.19S
Toms River     SUNNY     55  47  74 N6        30.21S
Belmar         SUNNY     59  47  64 NW7       30.21S
$$

PAZ047>061-062-071-251400-
EASTERN PENNSYLVANIA

CITY           SKY/WX    TMP DP  RH WIND       PRES   REMARKS
Philadelphia   MOSUNNY   60  41  49 N9        30.22S
Allentown      SUNNY     53  43  68 W3        30.24R
Scranton       SUNNY     48  43  82 SW5       30.24R
$$

CTZ002-004>006-009-010-012-RIZ004-006-007-MAZ004-011-015-251400-
SOUTHERN NEW ENGLAND
 IN CT

CITY           SKY/WX    TMP DP  RH WIND       PRES   REMARKS
Bradley INTL   SUNNY     52  39  61 NE5       30.20R
Hartford       SUNNY     52  40  63 N7        30.20R
Danbury        SUNNY     54  40  59 N3        30.21S
Wtrbury/Oxford SUNNY     52  36  54 N6        30.22R
Bridgeport     SUNNY     58  39  49 N9        30.19S
Meriden        SUNNY     54  39  57 NW10      30.19S
New Haven      SUNNY     55  41  59 N7        30.20R
Chester        FAIR      52  39  62 N9        30.19R
Groton         SUNNY     56  42  59 N9        30.17S
Wilimantic     SUNNY     47  44  90 CALM      30.19S

 IN RI

CITY           SKY/WX    TMP DP  RH WIND       PRES   REMARKS
Providence     SUNNY     55  35  47 N14       30.16S
Block Island   SUNNY     56  40  55 N13G20    30.17R
Westerly       SUNNY     54  39  57 N8        30.18R
 IN MA

CITY           SKY/WX    TMP DP  RH WIND       PRES   REMARKS
Boston         SUNNY     53  36  52 NW13      30.14S
Worcester      SUNNY     49  33  54 N13G21    30.16R
Westfield      SUNNY     50  43  77 CALM      30.19S
Provincetown   SUNNY     56  41  57 NW13G22   30.12S
Nantucket      MOSUNNY   58  43  57 NW17G25   30.10S
$$

ANZ330-335-338-340-345-350-353-355-251400-
COASTAL MARINE OBSERVATIONS


STATION/POSITION TIME  SKY/WX   TEMP    WIND        PRES    VSBY  WAVE
                                AIR SEA DIR/SP/G                  HT/PER
                 (UTC)          (F)     (DEG/KT/KT) (MB)    (MI)  (FT/S)
NY HARB ENTRANCE 1250            60 71   10/ 14/ 17 1022.0          4/10
20S FIRE ISLAND  1150            61 70   10/ 14/ 17 1021.4          4/11
GREAT SOUTH BAY  1215            58 71  350/  6/ 10   N/A
23 SSW MONTAUK P 1150            59 68  350/ 14/ 17 1021.5          5/11
15 E BARNEGAT LI 1230               71                N/A           5/12
HUDSON CANYON    1150            64 69              1020.5          5/12
KINGS POINT      1236            58 72              1022.4
EXECUTION ROCKS  1245            58      10/ 12/ 16   N/A
CENTRAL LI SOUND 1245            57 72  350/ 12/ 16   N/A           1/ 3
EASTERN LI SOUND NOT AVBL
ROBBINS REEF     1236            56     330/  7/ 10 1022.8
$$


>>>>>>>>>>>>>>>>>>>>>>>>>>>> KEY <<<<<<<<<<<<<<<<<<<<<<<<<<<
>                                                          <
>     SKY/WX - Sky Condition/Present Weather               <
>     TMP    - Temperature in Fahrenheit                   <
>     DP     - Dew Point in Fahrenheit                     <
>     RH     - Relative Humidity in Percent                <
>     WIND   - Direction (from) and Speed in MPH           <
>     PRES   - Mean Sea Level Pressure (inches of Hg)      <
>     WCI    - Wind Chill Index                            <
>     VSB    - VISIBILITY IN MILES                         <
>     HX     - HEAT INDEX                                  <
>     TC     - TEMPERATURE IN CELSIUS                      <
>     VRB    - VARIABLE WIND DIRECTION                     <
>                                                          <
>>>>>>>>>>>>>>>>>>>>>>>>>>>> KEY <<<<<<<<<<<<<<<<<<<<<<<<<<<




USA.gov is the U.S. government's official web portal to all federal, state and local government web resources and services.